Regional Weather Roundup
Issued by NWS

Home | Current Version | Previous Version | Text Only | Print | Product List | Glossary On
Versions: 1 2 3 4 5 6 7 8 9 10 11 12 13 14 15 16 17 18 19 20 21 22 23 24 25 26 27 28 29 30 31 32 33 34 35 36 37 38 39 40 41 42 43 44 45 46 47 48 49 50
000
ASUS44 KEWX 251611
RWRTX
SOUTH TEXAS REGIONAL WEATHER ROUNDUP
NATIONAL WEATHER SERVICE AUSTIN/SAN ANTONIO TX
1100 AM CDT SUN SEP 25 2016

NOTE: "FAIR" INDICATED FEW OR NO CLOUDS BELOW 12,000 FEET WITH NO
SIGNIFICANT WEATHER AND/OR OBSTRUCTIONS TO VISIBILITY.

* - THESE STATIONS ARE NOT NWS OR FAA STATIONS...AND ARE NOT SUBJECT
    TO NWS AND FAA QUALITY CONTROL.

TXZ171-172-183>190-251700-
TEXAS HILL COUNTRY AND EDWARDS PLATEAU

CITY           SKY/WX    TMP DP  RH WIND       PRES   REMARKS
JUNCTION       CLOUDY    68  32  26 NE8       30.06R
*LLANO         PTSUNNY   73  73 100 NE5       30.07S
BURNET         CLOUDY    73  68  84 NE10      30.06R HAZE
*HORSESHOE BAY CLOUDY    72  68  88 CALM      30.05S
*KERRVILLE     LGT RAIN  72  69  90 NE14G23   30.02S
*FREDERICKSBRG CLOUDY    70  67  89 E9        30.06R
*ROCKSPRINGS   HVY RAIN  64  64 100 NW20      30.09R
*BOERNE STAGE  PTSUNNY   79  70  73 SE9       30.03R
*CASTROVILLE   CLOUDY    83  70  64 SE15G21   29.99R
HONDO          MOSUNNY   83  73  72 S15       29.97R
*UVALDE        CLOUDY    79  73  81 S13       29.97R
DEL RIO        RAIN      70  69  97 N8        29.97S
LAUGHLIN AFB   RAIN      70  68  94 N12       29.97F
CARRIZO SPRGS  CLOUDY    82  72  69 S10       29.93R
*EAGLE PASS    NOT AVBL
$$

TXZ173-191>194-202-209-217>225-228-251700-
CENTRAL AND SOUTH CENTRAL TEXAS

CITY           SKY/WX    TMP DP  RH WIND       PRES   REMARKS
GEORGETOWN       N/A     75  70  83 N6        30.02S
AUSTIN/BERGSTM CLOUDY    82  74  76 VRB3      30.00S
AUSTIN/MABRY   CLOUDY    78  73  84 NW3       30.02R
*AUSTIN/EXEC   CLOUDY    82  79  89 CALM      30.02R HX  93
*LAGO VISTA    CLOUDY    73  72  94 N8        30.04R
SAN MARCOS     CLOUDY    79  73  83 SE5       30.03R
NEW BRAUNFELS  PTSUNNY   81  74  79 E6        29.99R
RANDOLPH AFB   PTSUNNY   83  75  78 SE8       30.00R HX  90
PT SAN ANTONIO PTSUNNY   83  74  73 SE14      29.97R HX  90
SAN ANTONIO    CLOUDY    82  73  74 SE10G17   30.00R
STINSON FIELD  PTSUNNY   85  74  69 SE12      29.97R HX  92
*PLEASANTON    PTSUNNY   83  74  74 E7        29.96R HX  90
*LA GRANGE     MOSUNNY   86  74  68 S6        29.99R HX  94
*GIDDINGS      MOSUNNY   84  74  70 S8        30.05R HX  91
*GONZALES      MOSUNNY   87  77  71 SE10G17   29.98S HX  98
$$

TXZ163>164-176>182-195>201-210>213-226-227-235-251700-
SOUTHEAST TEXAS

CITY           SKY/WX    TMP DP  RH WIND       PRES   REMARKS
COLLEGE STN    MOSUNNY   85  76  74 SE10      30.01R HX  94
*BRYAN         PTSUNNY   85  77  78 MISG      30.02S HX  95
*CALDWELL      NOT AVBL
*CROCKETT      NOT AVBL
*BRENHAM       MOSUNNY   87  75  67 SE6       30.02R HX  96
HUNTSVILLE     PTSUNNY   83  75  77 VRB3      30.03R HX  90
CONROE         CLOUDY    81  76  84 S5        30.03R
HOUSTON BUSH   CLOUDY    78  72  81 SE3       30.00F
HOUSTON HOBBY  CLOUDY    78  73  84 E3        30.00F
*HOUSTON SW AP CLOUDY    79  74  86 SE3       30.01F
PEARLAND       LGT RAIN  80  75  84 E3        30.01F
HOUSTON HOOKS  CLOUDY    82  75  79 E7        30.00F
ELLINGTON FLD  PTSUNNY   81  73  78 E3        30.02
SUGAR LAND     CLOUDY    80  73  79 SE3       30.00R
*HOUSTON EXEC  CLOUDY    86  77  74 SE12      30.01S HX  97
*CLEVELAND MUN CLOUDY    85  78  77 CALM      30.03R HX  97
*WHARTON       MOSUNNY  N/A N/A N/A SE6       30.00S
*COLUMBUS      PTSUNNY   85  77  76 SE7       30.01R HX  95
*EAGLE LAKE    MOSUNNY   87  76  69 S10       29.99S HX  97
$$

TXZ214>216-236>238-251700-
THE UPPER TEXAS COAST

CITY           SKY/WX    TMP DP  RH WIND       PRES   REMARKS
*ORANGE        MOSUNNY   82  75  77 SE9       30.05R
PORT ARTHUR    MOSUNNY   84  75  74 E14       30.02S HX  92
GALVESTON      CLOUDY    83  77  82 CALM      30.01S HX  92
ANGLETON       CLOUDY    85  78  80 SE6       30.00R HX  96
*BAY CITY      PTSUNNY   84  79  83 E5        30.00R HX  96
PALACIOS       MOSUNNY   83  73  72 S14       29.98S
$$

TXZ229>234-239>247-251700-
TEXAS COASTAL BEND AND RIO GRANDE PLAINS

CITY           SKY/WX    TMP DP  RH WIND       PRES   REMARKS
VICTORIA       MOSUNNY   80  75  84 SE9       29.98R
*BEEVILLE      MOSUNNY   87  78  75 SE10      29.95S HX  99
ROCKPORT       CLOUDY    83  74  74 SE15      29.96R
*PORT ARANSAS  PTSUNNY   80  73  79 S12G31    29.96R THUNDER
*PORT LAVACA   LGT RAIN  81  79  94 SE6       29.97F
*INGLESIDE     CLOUDY    82  80  91 S7        29.95S HX  94
CORPUS CHRISTI CLOUDY    85  75  72 SE15      29.95R HX  93
CORPUS NAS     CLOUDY    81  74  79 SE13      29.95R THUNDER
*ROBSTOWN      CLOUDY    88  75  66 SE13      29.95R HX  97
ALICE          CLOUDY    86  76  71 SE14      29.93R HX  96
KINGSVILLE NAS PTSUNNY   88  77  69 SE16G22   29.94R HX 100
COTULLA        MOSUNNY   88  71  57 S10G20    29.93R HX  94
*FAITH RANCH     N/A    N/A N/A N/A MISG        N/A
LAREDO         MOSUNNY   89  72  56 SE14G21   29.91S HX  96
$$

TXZ248>255-251700-
DEEP SOUTH TEXAS

CITY           SKY/WX    TMP DP  RH WIND       PRES   REMARKS
BROWNSVILLE    MOSUNNY   91  74  57 SE18G25   29.94R HX 100
PORT ISABEL    MOSUNNY   90  76  63 SE20G25   29.93R HX 101
*SOUTH PADRE     N/A     86  77  74 S13       29.94S HX  97
HARLINGEN      LGT RAIN  92  74  55 S23       29.91R HX 101
*HEBBRONVILLE  MOSUNNY   86  71  62 S15G25    29.95R HX  91
MCALLEN        PTSUNNY   94  73  50 SE21G31   29.91S HX 103
*WESLACO       PTSUNNY   90  74  59 S15G22    29.91S HX  99
FALFURRIAS     CLOUDY    90  73  57 SE14      29.92S HX  97
EDINBURG       MOSUNNY   91  72  53 SE16G28   29.91S HX  98
*ZAPATA        MOSUNNY   88  69  52 SE8G18    29.91R HX  93
$$

TXZ213>215-236>238-242>244-246-247-251-254-255-251700-
CMAN STATIONS

STATION/POSITION TIME  TEMP    WIND        PRES    WAVE
                       AIR SEA DIR/SP/G            HT/PER
                 (UTC) (F)     (DEG/KT/KT) (MB)    (FT/S)
SABINE PASS      1500   79 87   90/ 10/ 13 1018.1
SEA RIM ST PARK  1600   80     130/  8/  9 1017.4
NORTH JETTY/GLS  1500   86 86  170/  2/  3   N/A
EAGLE POINT      1500   79 84  190/  1/  2 1016.2
MORGANS POINT    1500   76 86  270/  3/  4 1016.2
PORT ARANSAS     1600   83 85  130/ 14/ 15 1014.4
MALAQUITE BEACH  1500   85 86  140/ 22/ 25 1014.3
BAFFIN BAY       1500   82 84  140/ 12/ 18 1013.7
PORT ISABEL      1500   85 87  150/ 11/ 17 1013.6
$$

GMZ080-GMZ150>470-251700-
OFFSHORE BUOY REPORTS

STATION/POSITION TIME  TEMP    WIND        PRES    WAVE
                       AIR SEA DIR/SP/G            HT/PER
                 (UTC) (F)     (DEG/KT/KT) (MB)    (FT/S)
20 E GALVESTON   1550   85 86  150/  8/ 10 1016.1    2/ 5
90 E PT ARANSAS  1550   84 86  110/ 10/ 12 1015.2    3/ 5
35 NE PT MANSFLD 1550   85 86  140/ 14/ 16 1014.0    4/ 6
200 E PT ISABEL  1550   85 87  110/ 12/ 16 1014.9    3/ 5
$$



USA.gov is the U.S. government's official web portal to all federal, state and local government web resources and services.